Waarnemingen

Advertentie
Mijn weer
Istres, Frankrijk (7647): temperatuur & dauwpunt: 14.10.2018 15:00:00 - 20.10.2018 15:00:00 (CEST)Istres, Frankrijk (7647): temperatuur 5cm: 14.10.2018 15:00:00 - 20.10.2018 15:00:00 (CEST)Istres, Frankrijk (7647): windsnelheid & windstoten: 14.10.2018 15:00:00 - 20.10.2018 15:00:00 (CEST)Istres, Frankrijk (7647): windrichting: 14.10.2018 15:00:00 - 20.10.2018 15:00:00 (CEST)Istres, Frankrijk (7647): luchtdruk: 14.10.2018 15:00:00 - 20.10.2018 15:00:00 (CEST)Istres, Frankrijk (7647): zicht: 14.10.2018 15:00:00 - 20.10.2018 15:00:00 (CEST)Istres, Frankrijk (7647): neerslag: 14.10.2018 15:00:00 - 20.10.2018 15:00:00 (CEST)
Datum & Tijd tt [°C] td [°C] tt 5cm [°C] ff [km/u] ff [kn] fx [km/u] fx [kn] dd ppp [hPa] vv [km] rr [mm]
20.10.2018 15:00:00 - - - - - - - - - - -
20.10.2018 14:00:00 24,0 14,1 26,8 2 1 9 5 W 1022,3 19 0,0
20.10.2018 13:00:00 23,3 15,9 24,8 5 3 21 11 N 1022,9 20 0,0
20.10.2018 12:00:00 20,8 17,0 21,9 13 7 24 13 N 1023,2 15 0,0
20.10.2018 11:00:00 20,0 17,0 19,9 13 7 19 10 N 1023,0 14 0,0
20.10.2018 10:00:00 17,1 17,1 16,0 13 7 20 11 NNO 1022,6 17 0,0
20.10.2018 09:00:00 15,0 15,0 13,6 9 5 21 11 NNO 1021,8 13 0,0
20.10.2018 08:00:00 13,9 13,9 13,0 13 7 19 11 NNO 1021,1 10 0,0
20.10.2018 07:00:00 13,8 13,8 13,0 13 7 21 11 N 1020,6 11 0,0
20.10.2018 06:00:00 13,7 13,7 12,9 14 8 19 11 NNO 1019,9 12 0,0
20.10.2018 05:00:00 13,6 13,6 13,0 15 8 18 10 NNO 1019,7 10 0,0
20.10.2018 04:00:00 13,9 13,9 13,2 11 6 15 8 NNO 1019,6 9 0,0
20.10.2018 03:00:00 14,7 14,7 13,3 13 7 18 10 N 1019,9 10 0,0
20.10.2018 02:00:00 14,6 14,6 13,0 5 3 8 4 N 1019,9 7 0,0
20.10.2018 01:00:00 15,7 15,7 12,9 2 1 5 3 ZZW 1019,8 4,0 0,0
20.10.2018 00:00:00 16,5 16,5 13,6 0 0 4 2 N 1019,5 8 0,0
19.10.2018 23:00:00 16,8 16,8 14,1 0 0 3 2 N 1019,4 13 0,0
19.10.2018 22:00:00 17,6 17,6 14,7 0 0 6 3 N 1019,1 13 0,0
19.10.2018 21:00:00 17,9 17,7 15,2 4 2 8 5 NNO 1018,6 13 0,0
19.10.2018 20:00:00 18,9 18,9 15,7 8 4 8 5 WZW 1018,4 10 0,0
19.10.2018 19:00:00 20,9 17,7 17,6 6 4 13 7 W 1017,7 19 0,0
19.10.2018 18:00:00 22,9 15,7 22,4 10 5 20 11 WNW 1017,1 24 0,0
19.10.2018 17:00:00 24,3 15,5 25,9 13 7 22 12 WNW 1017,1 34 0,0
19.10.2018 16:00:00 24,7 15,3 28,4 14 7 23 13 WNW 1016,9 20 0,0
19.10.2018 15:00:00 24,9 15,8 29,9 11 6 21 11 NNW 1017,0 44 0,0
19.10.2018 14:00:00 24,9 15,5 27,0 13 7 17 9 NNW 1017,2 20 0,0
19.10.2018 13:00:00 23,4 16,0 26,1 8 4 15 8 N 1017,9 34 0,0
19.10.2018 12:00:00 22,3 17,4 24,3 11 6 16 8 N 1018,1 18 0,0
19.10.2018 11:00:00 19,9 17,9 19,5 8 4 18 10 NNO 1017,9 19 0,0
19.10.2018 10:00:00 17,4 17,4 16,9 10 6 19 11 NNO 1017,5 20 0,0
19.10.2018 09:00:00 16,2 16,2 15,0 8 5 23 12 NNO 1016,9 19 0,0
19.10.2018 08:00:00 15,3 15,3 14,5 16 9 24 13 NNO 1016,1 18 0,0
19.10.2018 07:00:00 15,3 15,3 14,6 13 7 21 11 NNO 1015,8 18 0,0
19.10.2018 06:00:00 14,9 14,9 14,4 15 8 20 11 NNO 1015,6 13 0,0
19.10.2018 05:00:00 15,3 15,3 14,7 11 6 15 8 NNO 1015,5 11 0,0
19.10.2018 04:00:00 15,3 15,3 14,5 8 4 16 9 NO 1015,2 12 0,0
19.10.2018 03:00:00 15,4 15,4 14,8 11 6 18 10 NNO 1015,3 11 0,0
19.10.2018 02:00:00 15,6 15,6 14,9 13 7 16 9 NNO 1015,4 10 0,0
19.10.2018 01:00:00 15,8 15,8 15,2 9 5 16 9 NNO 1015,1 12 0,0
19.10.2018 00:00:00 16,9 16,7 14,7 5 3 9 5 N 1015,0 11 0,0
18.10.2018 23:00:00 16,8 16,8 14,7 4 2 8 5 NO 1014,5 13 0,0
18.10.2018 22:00:00 17,1 16,8 15,3 2 1 15 8 NNO 1013,9 14 0,0
18.10.2018 21:00:00 17,8 17,2 16,9 11 6 17 9 N 1013,6 15 0,0
18.10.2018 20:00:00 18,9 17,0 18,0 13 7 20 11 N 1013,4 16 0,0
18.10.2018 19:00:00 20,5 15,9 19,7 14 7 22 12 N 1013,0 15 0,0
18.10.2018 18:00:00 22,1 16,6 22,0 15 8 25 14 NNW 1012,4 19 0,0
18.10.2018 17:00:00 23,1 17,1 24,0 14 8 21 12 NNW 1012,6 20 0,0
18.10.2018 16:00:00 23,4 15,4 26,0 14 7 19 10 NNW 1012,9 20 0,0
18.10.2018 15:00:00 23,5 16,5 25,4 11 6 18 10 NNW 1013,1 19 0,0
18.10.2018 14:00:00 22,7 15,5 25,2 8 4 16 8 NNW 1013,6 21 0,0
18.10.2018 13:00:00 22,4 18,6 25,9 9 5 16 9 NNW 1013,9 9 0,0
18.10.2018 12:00:00 21,5 19,8 22,4 8 4 15 8 N 1014,1 12 0,0
18.10.2018 11:00:00 19,8 19,8 18,1 13 7 22 12 NNO 1014,2 11 0,0
18.10.2018 10:00:00 17,8 17,8 17,6 16 9 24 13 N 1014,2 9 0,0
18.10.2018 09:00:00 17,5 17,5 16,5 11 6 18 10 N 1013,9 8 0,0
18.10.2018 08:00:00 17,2 17,2 16,6 9 5 20 11 NO 1014,0 6 0,2
18.10.2018 07:00:00 17,5 17,5 16,9 12 6 21 11 N 1013,6 9 0,0
18.10.2018 06:00:00 17,5 17,5 17,1 10 5 23 12 NNO 1013,4 18 0,0
18.10.2018 05:00:00 17,5 17,5 17,1 13 7 18 10 NNO 1013,3 17 0,0
18.10.2018 04:00:00 17,4 17,4 17,0 13 7 18 10 N 1013,5 12 0,0
18.10.2018 03:00:00 17,6 17,6 17,0 11 6 23 12 N 1014,3 15 0,2
18.10.2018 02:00:00 17,9 17,9 17,1 14 8 21 12 O 1014,9 10 0,0
18.10.2018 01:00:00 17,9 17,9 17,5 5 3 9 5 ONO 1015,0 6 0,0
18.10.2018 00:00:00 18,0 18,0 17,5 5 3 8 4 N 1015,1 6 0,0
17.10.2018 23:00:00 18,0 18,0 17,6 4 2 9 5 NNW 1015,1 4,7 0,2
17.10.2018 22:00:00 18,1 18,1 17,6 4 2 8 4 NNO 1014,9 7 0,0
17.10.2018 21:00:00 18,1 18,1 17,4 0 0 10 5 N 1014,8 12 0,2
17.10.2018 20:00:00 18,4 18,4 17,4 3 2 31 17 ZO 1014,8 4,9 2,0
17.10.2018 19:00:00 20,1 19,3 19,3 10 5 21 11 N 1014,1 5 0,0
17.10.2018 18:00:00 21,3 18,5 21,1 11 6 15 8 NNW 1014,0 11 0,0
17.10.2018 17:00:00 22,1 16,8 22,5 11 6 13 7 NNW 1014,3 17 0,0
17.10.2018 16:00:00 22,3 15,2 23,3 10 6 17 9 NNW 1014,4 20 0,0
17.10.2018 15:00:00 22,3 17,7 25,3 6 3 17 9 NW 1014,6 16 0,0
17.10.2018 14:00:00 21,8 17,6 23,6 11 6 20 11 NNW 1015,4 13 0,0
17.10.2018 13:00:00 20,2 18,3 22,8 10 5 17 9 N 1016,4 17 0,0
17.10.2018 12:00:00 19,8 18,1 19,9 13 7 17 9 NNW 1016,7 20 0,0
17.10.2018 11:00:00 17,8 17,8 16,6 10 5 15 8 N 1016,8 9 0,0
17.10.2018 10:00:00 16,4 16,4 16,1 10 5 17 9 N 1017,3 8 0,0
17.10.2018 09:00:00 16,1 16,1 15,6 8 4 13 7 N 1017,0 7 0,0
17.10.2018 08:00:00 15,9 15,9 15,6 0 0 9 5 N 1017,1 5 0,2
17.10.2018 07:00:00 15,8 15,8 15,6 3 1 11 6 NNO 1017,2 4,2 0,6
17.10.2018 06:00:00 16,0 16,0 15,7 7 4 11 6 NO 1017,3 4,9 0,0
17.10.2018 05:00:00 16,0 16,0 15,7 3 1 13 7 NO 1017,3 4,6 0,0
17.10.2018 04:00:00 16,3 16,3 16,0 8 4 10 5 N 1017,5 3,2 0,0
17.10.2018 03:00:00 16,2 16,2 15,9 0 0 14 8 N 1018,1 3,4 1,8
17.10.2018 02:00:00 16,4 16,4 15,8 6 4 10 6 O 1018,6 3,1 0,4
17.10.2018 01:00:00 16,4 16,4 16,0 5 3 8 5 OZO 1018,5 7 0,0
17.10.2018 00:00:00 16,6 16,6 16,1 3 2 10 5 W 1018,5 9 0,0
16.10.2018 23:00:00 17,1 17,1 16,4 6 4 10 5 NW 1018,8 11 0,0
16.10.2018 22:00:00 17,0 17,0 15,6 2 1 11 6 NW 1018,9 12 0,0
16.10.2018 21:00:00 17,0 17,0 15,6 2 1 5 3 ZO 1018,8 10 0,0
16.10.2018 20:00:00 17,7 17,5 16,9 0 0 10 5 N 1018,4 13 0,0
16.10.2018 19:00:00 18,0 16,0 17,0 0 0 19 10 N 1018,2 15 0,0
16.10.2018 18:00:00 18,9 15,6 18,9 14 7 22 12 NNO 1017,7 20 0,0
16.10.2018 17:00:00 19,9 17,1 20,5 17 9 24 13 N 1017,6 10 0,0
16.10.2018 16:00:00 19,1 17,6 20,5 15 8 27 15 N 1017,6 15 0,0
16.10.2018 15:00:00 19,7 19,7 19,5 17 9 24 13 N 1017,5 12 0,0
16.10.2018 14:00:00 18,6 18,6 18,2 10 6 16 8 N 1017,7 12 0,0
16.10.2018 13:00:00 17,7 17,7 16,6 9 5 22 12 ONO 1018,1 9 0,2
16.10.2018 12:00:00 17,1 17,1 16,0 12 7 19 10 NO 1018,3 6 0,0
16.10.2018 11:00:00 16,8 16,8 15,6 9 5 21 11 NO 1017,9 7 0,4
16.10.2018 10:00:00 16,8 16,8 15,6 11 6 20 11 NO 1017,2 9 0,0
16.10.2018 09:00:00 16,3 16,3 15,5 8 4 14 8 NNO 1016,7 10 0,0
16.10.2018 08:00:00 16,1 16,1 15,4 8 5 12 6 NNO 1016,0 9 0,0
16.10.2018 07:00:00 16,2 16,2 15,5 9 5 16 8 NO 1015,7 8 0,0
16.10.2018 06:00:00 17,1 17,1 15,7 7 4 24 13 ONO 1015,4 10 0,0
16.10.2018 05:00:00 17,2 17,2 15,2 18 10 32 17 OZO 1015,1 10 0,4
16.10.2018 04:00:00 17,0 16,8 15,2 26 14 54 29 O 1015,3 6 0,2
16.10.2018 03:00:00 17,8 17,0 15,7 23 12 40 22 O 1015,2 13 0,0
16.10.2018 02:00:00 16,6 16,6 15,5 9 5 51 28 O 1015,3 9 1,0
16.10.2018 01:00:00 17,3 17,3 15,6 27 14 40 22 O 1015,4 10 0,0
16.10.2018 00:00:00 17,1 17,1 15,5 24 13 50 27 O 1015,0 9 0,6
15.10.2018 23:00:00 17,6 17,0 15,8 25 13 42 23 O 1014,8 15 0,0
15.10.2018 22:00:00 16,2 16,2 15,7 11 6 32 17 O 1014,3 5 2,8
15.10.2018 21:00:00 16,3 16,3 15,8 8 4 21 11 Z 1013,8 1,6 3,1
15.10.2018 20:00:00 16,5 16,5 15,8 12 7 31 17 ZO 1013,3 3,1 2,6
15.10.2018 19:00:00 17,2 17,2 15,8 23 13 45 24 ZO 1012,2 4,0 1,6
15.10.2018 18:00:00 18,3 16,8 16,3 31 17 59 32 OZO 1011,3 8 0,0
15.10.2018 17:00:00 19,3 16,5 16,9 30 16 54 29 OZO 1010,3 11 0,0
15.10.2018 16:00:00 20,0 15,0 16,9 30 16 68 37 O 1010,1 13 0,0
15.10.2018 15:00:00 21,7 12,5 21,2 40 21 68 37 OZO 1009,8 17 0,0
15.10.2018 14:00:00 21,7 12,8 19,7 32 18 59 32 O 1009,5 21 0,0
15.10.2018 13:00:00 20,8 12,2 16,9 34 19 55 30 O 1009,9 19 0,0
15.10.2018 12:00:00 20,1 12,8 15,7 39 21 55 30 OZO 1010,9 13 0,0
15.10.2018 11:00:00 19,4 13,1 15,5 40 21 60 32 OZO 1010,7 9 0,8
15.10.2018 10:00:00 21,1 10,9 20,2 34 18 58 31 O 1010,1 20 0,0
15.10.2018 09:00:00 20,7 11,1 19,6 35 19 54 29 O 1009,6 22 0,0
15.10.2018 08:00:00 20,2 11,7 19,3 30 16 46 25 O 1009,5 22 0,0
15.10.2018 07:00:00 20,1 12,6 19,2 25 13 40 21 O 1009,7 21 0,0
15.10.2018 06:00:00 19,9 12,9 18,8 22 12 37 20 O 1010,1 22 0,0
15.10.2018 05:00:00 19,7 12,2 18,8 24 13 39 21 O 1010,5 23 0,0
15.10.2018 04:00:00 19,8 11,3 18,5 25 14 45 24 O 1011,1 26 0,0
15.10.2018 03:00:00 19,5 11,0 18,1 21 12 35 19 O 1011,4 21 0,0
15.10.2018 02:00:00 19,4 11,4 17,7 16 8 26 14 O 1012,3 23 0,0
15.10.2018 01:00:00 19,0 11,6 17,8 14 7 26 14 O 1012,6 20 0,0
15.10.2018 00:00:00 18,9 12,6 17,8 17 9 32 18 O 1013,0 20 0,0
14.10.2018 23:00:00 19,4 12,4 18,4 21 11 48 26 O 1013,3 19 0,0
14.10.2018 22:00:00 20,0 13,7 19,0 30 16 42 23 OZO 1013,4 19 0,0
14.10.2018 21:00:00 20,1 14,7 19,3 26 14 41 22 OZO 1013,5 18 0,0
14.10.2018 20:00:00 20,5 14,8 19,9 27 14 44 24 OZO 1013,2 19 0,0
14.10.2018 19:00:00 20,9 14,1 20,4 31 17 51 28 OZO 1012,9 19 0,0
14.10.2018 18:00:00 21,4 14,1 21,0 32 17 48 26 OZO 1012,6 19 0,0
14.10.2018 17:00:00 21,8 13,9 21,7 29 16 46 25 OZO 1012,6 18 0,0
14.10.2018 16:00:00 22,0 15,6 22,4 31 17 52 28 OZO 1012,9 17 0,0
14.10.2018 15:00:00 22,1 15,9 22,5 36 19 55 30 ZO 1013,8 20 0,0

tt = temperatuur
td = dauwpunt
tt 5cm = temperatuur 5cm
ff = windsnelheid
fx = windstoten
dd = windrichting
ppp = luchtdruk
vv = zicht
rr = neerslag

Weerstations in de omgeving